Regional Weather Roundup
Issued by NWS Wakefield, VA

Home | Current Version | Previous Version | Text Only | Print | Product List | Glossary Off
Versions: 1 2 3 4 5 6 7 8 9 10 11 12 13 14 15 16 17 18 19 20 21 22 23 24 25 26 27 28 29 30 31 32 33 34 35 36 37 38 39 40 41 42 43 44 45 46 47 48 49 50

000
ASUS41 KAKQ 020814
RWRAKQ

REGIONAL WEATHER ROUNDUP
NATIONAL WEATHER SERVICE WAKEFIELD VA
400 AM EDT WED SEP 02 2015

Note: "fair" indicates few or no clouds below 12,000 feet with no
significant weather and/or obstructions to visibility. * = Denotes
station may not report precipitation (e.g., rain,snow,etc.),
thunder or fog.

VAZ042-051-052>054-056-020900-
NORTHERN VIRGINIA

CITY           SKY/WX    TMP DP  RH WIND       PRES   REMARKS
WASH NATIONAL  MOCLDY    78  73  84 CALM      30.03S
DULLES         PTCLDY    71  67  87 CALM      30.04S
FORT BELVOIR   PTCLDY    71  69  95 CALM      30.02S FOG
QUANTICO       MOCLDY    74  70  87 NW8       30.03S
FREDERICKSBRG* PTCLDY    73  73 100 CALM      30.03R
STAFFORD*      PTCLDY    70  68  92 CALM      30.07S
WARRENTON      PTCLDY    68  68 100 CALM      30.04S FOG
CULPEPER*      PTCLDY    67  67 100 CALM      30.05F FOG
MANASSAS*      CLOUDY    72  72 100 CALM      30.04S
LEESBURG*      MOCLDY    72  70  94 CALM      30.05F
WINCHESTER     CLEAR     68  66  94 CALM      30.07S
FRONT ROYAL*   FAIR      70  66  88 CALM      30.06S
LURAY*         FAIR      70  68  94 CALM      30.08S
$$

VAZ048-049-060>072-079>083-020900-
CENTRAL AND SOUTH CENTRAL VIRGINIA

CITY           SKY/WX    TMP DP  RH WIND       PRES   REMARKS
RICHMOND       MOCLDY    74  69  85 S3        30.04S
CHESTERFIELD*  CLOUDY    75  61  60 CALM      30.05F
PETERSBURG*    CLOUDY    71  71 100 CALM      30.05F
HANOVER        MOCLDY    71  69  93 CALM      30.05F
TAPPAHANNOCK*  MOCLDY    70  67  90 CALM      30.04S
QUINTON*       FAIR      69  69  98 CALM      30.04S
CHARLOTTSVILLE MOCLDY    74  69  85 CALM      30.05F
GORDONSVILLE*  PTSUNNY   69  68  98 CALM      30.04S FOG
ORANGE*        MOCLDY    70  70 100 CALM      30.06S FOG
LOUISA*        CLOUDY    72  68  88 CALM      30.04S
BUMPASS*       CLOUDY    71  69  94 CALM      30.04S
FARMVILLE*     MOCLDY    72  72 100 CALM      30.04F
CREWE*         PTSUNNY  N/A N/A N/A CALM      30.05S
FORT PICKETT*  FAIR      71  69  95 SW12      30.06S
CHASE CITY*    FAIR      73  73 100 CALM      30.06F
CLARKSVILLE*   FAIR      70  70 100 CALM      30.05F
SOUTH HILL*    PTCLDY    67  66  98 CALM      30.12S
LAWRENCEVILLE* FAIR      70  70 100 CALM      30.05F
EMPORIA*       FOG       64  64 100 CALM      30.06S VSB 1/4
$$

VAZ088>098-020900-
SOUTHEAST VIRGINIA

CITY           SKY/WX    TMP DP  RH WIND       PRES   REMARKS
NORFOLK        CLEAR     73  71  93 SW7       30.04S
VIRGINIA BEACH PTCLDY    76  70  82 SW6       30.03S
NORFOLK NAVAL  PTCLDY    74  71  91 S3        30.05S
WEST POINT*    MOCLDY    72  69  90 CALM      30.05S
SALUDA*        FAIR      74  71  91 CALM      30.03S
NEWPORT NEWS   PTCLDY    74  72  93 SW3       30.04S
LANGLEY AFB    PTCLDY    73  72  94 W2        30.03S
FORT EUSTIS    PTCLDY    73 N/A N/A VRB1      30.02S
WILLIAMSBURG*  PTCLDY    75  73  94 CALM      30.05S
HR EXEC AP*      N/A     64  63  94 CALM      30.06S
FRANKLIN*      CLEAR     67  67  98 CALM      30.05F
WAKEFIELD      CLEAR     70  68  93 CALM      30.05S FOG
$$

VAZ020-022-025-037-045-020900-
WEST CENTRAL AND SOUTHWEST VIRGINIA

CITY           SKY/WX    TMP DP  RH WIND       PRES   REMARKS
STAUNTON*      CLOUDY    73  68  86 CALM      30.12S
WAYNESBORO*    FAIR      70  66  85 CALM      30.12S
HOT SPRINGS VA MOCLDY    67  65  93 NW6       30.24S
LYNCHBURG      MOCLDY    69  67  93 CALM      30.09S
DANVILLE       PTCLDY    69  67  93 SW5       30.07S
SOUTH BOSTON*  PTSUNNY   71  69  95 CALM      30.06S
MARTINSVILLE     N/A     68  68 100 CALM      30.11F FOG
ROANOKE        PTCLDY    69  66  90 CALM      30.13S
BLACKSBURG     CLEAR     64  64 100 CALM      30.20S FOG
DUBLIN*        CLOUDY    64  64 100 CALM      30.19S FOG
MARION*        PTCLDY    63  61  95 CALM      30.22F FOG
HILLSVILLE*    PTCLDY    65  65  99 SW3       30.19S FOG
RICHLANDS*     PTSUNNY   65  39  39 N3        30.21S HAZE
WISE*          CLEAR     66  64  94 CALM      30.23R
ABINGDON*      CLEAR     67  64  90 CALM      30.18R
$$

MDZ021>025-VAZ099-100-020900-
SOUTHERN MARYLAND AND THE DELMARVA PENINSULA

CITY           SKY/WX    TMP DP  RH WIND       PRES   REMARKS
PATUXENT RIVER PTCLDY    73  69  87 CALM      30.01F
BAY BRIDGE APT   N/A     75  73  94 CALM      30.02S
LEONARDTOWN    NOT AVBL
DOVER          CLEAR     70  70 100 W2        30.00F
GEORGETOWN     PTCLDY    71  69  93 CALM      30.02F
EASTON         NOT AVBL
CAMBRIDGE      PTCLDY    72  68  88 CALM      30.02S
SALISBURY      PTCLDY    70  69  97 CALM      30.02F
OCEAN CITY     PTCLDY    73  70  90 W6        30.01F
WALLOPS ISLAND PTCLDY    73  72  96 SW5       30.03S
ACCOMACK*      PTCLDY    68  68 100 SW3       30.03S
$$

NCZ012>017-030>032-020900-
NORTH CENTRAL AND EASTERN NORTH CAROLINA

CITY           SKY/WX    TMP DP  RH WIND       PRES   REMARKS
ROANOKE RAPIDS FAIR      68  68 100 CALM      30.05S
RALEIGH        PTCLDY    69  66  90 CALM      30.06F
ELIZABETH CITY FOG       70  70 100 CALM      30.04S VSB 3/4
AHOSKIE*       CLEAR     67  66  99 CALM      30.06R FOG
EDENTON*       CLEAR     69  68  96 CALM      30.04F
CURRITUCK*     CLEAR     71  69  93 CALM      30.05S
KILL DEVIL HLS CLEAR     73  70  89 W3        30.03S
MANTEO         CLEAR     72  71  98 CALM      30.04S
CAPE HATTERAS  PTCLDY    77  74  90 W5        30.04F
TARBORO*       FAIR      67  66  97 CALM      30.06S FOG
GOLDSBORO      CLEAR     71  71  98 CALM      30.04F
WASHINGTON     CLEAR     69  69  98 CALM      30.05S
GREENVILLE     LGT RAIN  70  70 100 CALM      30.06F
NEW BERN       CLEAR     73  71  93 CALM      30.06F FOG
WILMINGTON     CLEAR     75  73  93 W6        30.06S
$$

VAZ048-020900-
ELSEWHERE

CITY           SKY/WX    TMP DP  RH WIND       PRES   REMARKS
HARRISBURG PA  MOCLDY    70  66  87 CALM      30.03F
BALTIMORE      MOCLDY    72  70  93 CALM      30.02S
ANNAPOLIS      CLOUDY    77  75  93 CALM      30.01F FOG
ANDREWS AFB    PTCLDY    71  69  93 S2        30.02F
PHILADELPHIA   CLEAR     74  70  87 CALM      30.03S
HENDERSON NC   CLEAR     70  67  90 SW3       30.07S
GREENSBORO     PTCLDY    73  66  78 CALM      30.08F
ROCKY MOUNT    CLEAR     69  68  96 CALM      30.06S FOG
$$

VAZ100-020900-
MARINE

STATION/POSITION TIME  TEMP    WIND        PRES    WAVE   SWELL
                       AIR SEA DIR/SP/G            HT/PER HT/PER
                 (UTC) (F)     (DEG/KT/KT) (MB)    (FT/S) (FT/S)
BRANDYWINE LGT   0700   75 76  290/  4/  5 1016.7F
CAPE MAY NJ      0700   72 81   70/  1/  2 1016.2F
LEWES DE         0700   75 76     CALM     1016.4F
15NM E FENWICK I 0750   78 78  140/  2/  2 1016.6F   2/ 9   2/ 9
OCEAN-CITY-INLET 0700   76 77  280/  3/  4 1015.7F
GOOSES REEF MD   0800   80 80  210/  2/  2 1017.4F
COVE POINT MD    0700   77     190/  4/  5 1017.3F
SOLOMONS ISLAND  0700      81                N/A
BISHOPS HEAD MD  0700   79 80  230/  3/  4 1015.8F
PINEY POINT MD   0705          270/  2/  3   N/A
POTOMAC MD       0800   79 80  250/  6/  8 1015.5F   1
CAMBRIDGE MD     0700   76 80  150/  1/  2 1015.9F
LEWISETTA VA     0700   76 81  240/  4/  5 1016.3F
RAPPAHANNOCK LGT 0700          220/  8/  8 1017.4F
STINGRAY PT      0800   79 79  260/  8/ 10 1017.2S   0
YORK RVR RNG VA  0700   78     250/  6/  6 1016.4F
YORKTOWN VA      0700   76 81  210/  1/  2 1016.6F
JAMESTOWN VA     0800   76 81  200/  2/  2   N/A
DOMINION TERM VA 0700   77     260/  4/  5 1017.0F
KIPTOPEKE VA     0700      80  220/  5/  6   N/A
CHES BAY BRIDGE  0700   76 79  180/  5/  6 1016.7F
CAPE HENRY VA    0700   74     210/  5/  7   N/A
CHESAPEAKE LGHT  0700   77     220/  7/  8 1017.8F
WILLOUBY STN VA  0700   76     290/  1/  3 1018.0F
CAPE HENRY BUOY  0728      80                N/A     1/ 9
1ST LANDING BUOY 0800      79              1016.8S   1
CAPE CHARLES BUO 0726      80                N/A     1/10   2/10
OFFSHORE WE BUOY 0711      79                N/A     2/ 7   2/ 7
64NM E OF VA BCH 0750   77 79  270/  4/  6 1016.8F   2/ 7   2/ 7
DUCK PIER NC     0700   77 78  250/  4/  5 1016.6F
44100 DUCK FRF   0724      79                N/A     1/ 9
44056 DUCK FRF   0711      80                N/A     1/10
OREGON INLET NC  0700   76 83  320/  1/  2 1017.3F
HATTERAS NC      0700   80 82  290/  6/  7 1017.1F
DIAMOND SHLS NC  0750   80 83  280/  8/  8 1017.1F   2/ 9   2/ 9
CAPE LOOKOUT NC  0800   79     280/  9/ 11 1017.2F
$$


USA.gov is the U.S. government's official web portal to all federal, state and local government web resources and services.